Lid_Strength_Index
8 12 13 11 11 10 11 12 13 12 11 12 12 12 11 10 10 11 10 9 9 8 8 8 8 8 9 8 3 2 2 1 1 1 1 1 1 1 0 0 0 1 1 -0
10 14 9 9 10 10 12 12 13 12 11 12 12 12 11 10 10 10 10 10 9 9 9 8 9 9 8 7 7 5 2 2 1 1 1 1 1 1 0 1 1 0 0 0
12 10 8 10 12 12 13 13 14 13 12 12 14 14 12 11 11 10 11 11 10 10 9 8 8 7 6 8 7 6 5 2 2 1 0 1 2 1 1 1 1 1 1 0
10 9 10 11 12 11 13 11 11 12 13 17 14 19 14 13 13 11 10 11 10 9 9 7 7 7 7 6 6 7 6 4 3 1 2 1 2 3 1 1 0 0 0 0
12 11 11 12 11 10 12 11 11 12 13 16 16 17 16 13 14 12 10 10 9 9 8 8 8 7 6 5 5 8 7 4 3 3 2 1 2 1 1 1 1 1 0 0
11 10 10 10 10 10 10 11 12 13 14 19 16 17 17 15 13 12 10 9 9 9 9 8 7 7 7 6 5 4 5 5 3 3 3 2 2 2 2 2 1 1 1 0
12 12 10 10 12 11 12 13 18 19 20 20 17 17 15 14 12 10 10 10 9 9 9 9 8 8 8 8 7 6 4 3 3 3 3 3 2 2 2 2 3 2 2 2
14 16 12 10 11 13 13 13 17 21 20 19 17 19 16 13 12 10 9 10 9 9 8 9 8 8 8 8 8 7 7 7 6 6 5 4 4 5 6 6 6 6 6 6
14 14 11 10 10 11 13 14 12 17 21 19 18 16 13 12 12 10 10 10 10 9 9 9 8 8 8 9 8 8 8 8 8 8 8 8 7 7 8 8 8 8 8 7
12 15 12 11 11 12 12 11 16 15 22 22 18 18 17 15 13 11 11 10 9 9 9 9 9 9 9 9 9 9 8 9 9 9 9 9 9 9 9 9 9 9 9 9
11 12 14 12 13 13 14 14 13 14 15 19 21 19 14 13 12 11 10 9 9 9 9 9 9 9 9 9 9 9 9 9 9 9 9 10 10 10 10 10 10 10 10 10
10 12 16 14 12 11 12 12 12 15 18 17 17 17 12 12 11 10 10 9 9 8 9 9 9 9 9 9 9 10 10 10 10 9 10 10 10 11 11 11 11 11 11 11
11 13 18 15 13 12 13 12 11 12 14 17 19 18 12 12 11 9 9 9 8 8 9 9 9 9 9 10 10 11 11 11 10 10 11 11 11 12 12 11 11 12 12 12
8 12 14 16 15 13 14 13 12 12 16 16 16 15 13 12 11 10 9 8 8 8 9 9 9 10 10 11 11 12 11 11 11 11 12 12 12 12 12 12 13 13 13 13
10 15 13 13 12 13 13 13 13 14 13 15 14 14 12 11 10 9 9 9 9 9 9 9 9 10 11 12 12 12 12 12 12 12 12 12 12 13 13 14 15 15 15 14
11 15 14 16 13 14 15 13 13 13 13 13 13 14 11 10 9 10 9 9 9 9 9 9 10 11 11 12 13 12 13 12 12 13 13 13 14 15 15 15 15 15 15 15
12 14 15 17 15 15 17 15 14 13 12 13 15 12 11 11 10 10 10 9 9 9 10 10 10 10 11 11 11 12 12 12 13 14 15 15 16 16 16 16 16 16 16 16
13 14 14 17 16 20 15 13 12 13 12 12 12 12 12 11 10 9 8 9 9 9 9 9 10 11 11 11 12 12 12 13 14 15 16 16 16 17 16 17 17 17 16 17
10 13 15 17 20 16 14 15 14 14 14 11 11 11 11 11 11 11 8 8 8 8 8 9 10 10 11 12 13 14 15 15 15 16 16 16 17 18 18 19 18 17 18 17
11 11 13 15 18 20 16 12 11 11 16 12 11 11 12 11 13 12 9 8 8 8 9 10 11 12 13 13 14 15 15 16 16 16 16 16 17 19 20 18 19 18 18 15
14 14 16 16 17 17 15 14 11 17 15 15 12 11 11 11 10 10 10 10 9 10 11 11 12 13 14 14 15 15 16 16 16 17 17 18 18 20 20 19 18 19 19 17
15 15 16 15 17 18 15 15 14 13 15 15 13 11 12 12 11 10 10 11 11 12 12 13 14 15 15 15 15 16 16 17 18 19 19 21 23 20 19 23 22 22 21 21
15 13 14 13 15 14 14 15 13 12 13 15 14 13 11 12 13 12 12 12 12 12 13 14 15 16 16 16 15 17 18 18 20 22 25 25 24 22 22 24 23 22 22 21
14 13 13 14 14 14 14 14 14 13 13 13 13 13 12 13 13 13 13 13 14 14 15 15 15 16 17 17 17 18 20 21 25 26 25 23 24 24 23 20 19 23 22 19
14 14 16 16 14 14 13 13 12 13 14 13 13 13 12 13 13 13 13 14 14 14 15 14 15 16 17 18 20 21 22 23 23 25 23 24 22 24 22 20 20 19 18 18
15 14 14 15 12 12 12 12 12 13 14 14 14 14 14 14 13 13 14 14 14 15 16 16 17 17 19 21 22 24 25 25 27 25 23 23 23 23 21 20 19 15 13 12